Showing default

QIANFAN-103, 66045

Orbit data source: Space-Track

QIANFAN-103, 66045 is a Chinese payload satellite in LEO that was launched on Fri, 17 Oct 2025 UTC via a CHANG ZHENG 6A launch vehicle from the Taiyaun Space Center, China (TSC). Payload-class satellites include a variety of spacecraft equipped with specific instruments for various scientific and technological missions. These include communications satellites like Starlink; space stations such as the ISS; scientific satellites like the Hubble; Earth observation satellites from companies like Planet Labs, Umbra, and HawkEye 360; GPS; miniature CubeSats for education and research; and military/defense satellites.

Loading next visibility...
Identifier
66045, 2025-233N
Orbit
LEO
Country
Flag of CNCN / PRC
Related business
Manufacturer
SECM
Mission
Operational Commercial Communications
Bus & Motor
QIANFAN, Unknown motor
Mass
267 kg wet, ~267 kg dry
Launch date (UTC)
2025-10-17 (8 months ago)
Launch vehicle
CHANG ZHENG 6A
Launch site
Taiyaun Space Center, China (TSC)
Object type
Payload
Rocket body
Debris
Shape & HBR
Box + 1 Pan, 14.5 m
Radar Cross Section
13.200 m², Large (>1 m²)

Expand to show TLE details & history
Last TLE update: 9 hours ago

TLE from 9 hours ago
0 QIANFAN-103
1 66045U 25233N   26177.58854866  .00000103  00000-0  14105-3 0  9997
2 66045  89.0001  42.2478 0001801  83.8125 276.3231 13.51014207 34459
Epoch: 2026-06-26T14:07Z
TLE epoch observation values (Epoch: 2026-06-26T14:07:30.604Z)
Latitude
-0.00004°
Longitude
-84.34461°
Altitude
1,071.335 km
Speed
7.316 km/s
True Right ascension
02h 48m 59s
True Declination
0° 00' 00"
Sunlit
Object was in daylight at epoch
Visualization orbit readout
Latitude
Unknown
Longitude
Unknown
Altitude
Unknown
Speed
Unknown
Apparent Right ascension
Unknown
Apparent Declination
Unknown
Sunlit
N/A
Visualization observer readout
Local Sidereal Time
10:53:41
Azimuth
Unknown
Elevation
Unknown
Doppler factor
Unknown
Orbital elements
Apogee altitude
1,066.921 km
Perigee altitude
1,064.24 km
Semi-major axis
7,443.717 km
Eccentricity
0.00018
Inclination
89.0001°
RAAN
42.2478°
Arg. of periapsis
83.8125°
True anomaly
276.30259°
Mean anomaly
276.3231°
Eccentric anomaly
276.31284°
Mean motion
3.37955 °/min
Orbital period
106.52 mins
BSTAR
0.00014105
Loading maneuver chart data...
Computing Atmospheric mass density...
Loading historical data...
Loading historical data...
Loading historical data...
Loading historical data...
Loading historical data...
Loading historical data...
Loading historical data...

Documentation

Showing up to 5 results
|